Welcome to Northern Hawkes Bay. New Zealand.
PWS Header
      nz Flag



Hit Counter


W3C Valid W3C Valid logo


    Wairoa

Select any of the Stations below to visit their websites.










Historic Data from Weather Underground
Select the location of interest below. Wairoa is the default. Please have patience, this Data is slow to load in.
Northern Hawkes Bay Historical Data
Daily Summary for March 23, 2017 Units:  English    Metric   Both
« Previous Day
Next Day »
Daily Weekly Monthly Yearly Custom
  High: Low: Average:
Temperature: 67.6 °F 59.5 °F 62.6 °F
Dew Point: 64.9 °F 57.6 °F 59.5 °F
Humidity: 97% 79% 90%
Wind Speed: 13.6mph 0mph 2.4mph
Wind Gust: 22.8mph - -
Wind- - SE
Pressure: 30.1 in 29.9 in -
Precipitation: 0 in    
Historical Graphs
 
 
Tabular Data for March 23, 2017
Time Temperature Dew Point Pressure Wind Wind Speed Wind Gust Humidity Rainfall Rate (Hourly) solar
00:03 67.6 °F 64.9 °F 29.9 in Calm   6.9 mph 91% 0 in 0 W/m2
00:08 67.5 °F 64.8 °F 29.9 in South 1.6 mph 2.2 mph 91% 0 in 0 W/m2
00:13 67.5 °F 64.8 °F 29.9 in Calm   2.2 mph 91% 0 in 0 W/m2
00:18 67.3 °F 64.6 °F 29.9 in Calm   2.2 mph 91% 0 in 0 W/m2
00:23 67.3 °F 64.2 °F 29.9 in South 1.6 mph 4.5 mph 90% 0 in 0 W/m2
00:29 67.1 °F 64 °F 29.9 in South 3.1 mph 4.5 mph 90% 0 in 0 W/m2
00:34 67.1 °F 63.9 °F 29.9 in Calm   4.5 mph 89% 0 in 0 W/m2
00:39 67.1 °F 63.9 °F 29.9 in Calm   4.5 mph 89% 0 in 0 W/m2
00:44 67.1 °F 63.9 °F 29.9 in Calm     89% 0 in 0 W/m2
00:49 67.1 °F 63.9 °F 29.9 in Calm     89% 0 in 0 W/m2
00:54 66.9 °F 63.3 °F 29.9 in SSW 1.6 mph 6 mph 88% 0 in 0 W/m2
00:59 66.9 °F 63.3 °F 29.9 in South 0.7 mph 6 mph 88% 0 in 0 W/m2
01:04 66.9 °F 63 °F 29.9 in Calm   4.5 mph 87% 0 in 0 W/m2
01:09 66.9 °F 63 °F 29.9 in Calm   4.5 mph 87% 0 in 0 W/m2
01:14 66.7 °F 62.8 °F 29.9 in Calm     87% 0 in 0 W/m2
01:19 66.7 °F 62.8 °F 29.9 in Calm     87% 0 in 0 W/m2
01:24 66.7 °F 62.8 °F 29.9 in Calm     87% 0 in 0 W/m2
01:29 66.7 °F 62.8 °F 29.9 in Calm     87% 0 in 0 W/m2
01:34 66.7 °F 62.8 °F 29.9 in SW 0.7 mph 3.1 mph 87% 0 in 0 W/m2
01:39 66.6 °F 62.6 °F 29.9 in South 2.2 mph 4.5 mph 87% 0 in 0 W/m2
01:44 66.6 °F 62.6 °F 29.9 in Calm   4.5 mph 87% 0 in 0 W/m2
01:49 66.6 °F 62.6 °F 29.9 in South 0.7 mph 3.8 mph 87% 0 in 0 W/m2
01:54 66.4 °F 62.8 °F 29.9 in Calm   3.1 mph 88% 0 in 0 W/m2
01:59 66.2 °F 62.6 °F 29.9 in South 1.6 mph 5.4 mph 88% 0 in 0 W/m2
02:04 66.2 °F 63 °F 29.9 in Calm   5.4 mph 89% 0 in 0 W/m2
02:09 66.2 °F 63 °F 29.9 in South 3.1 mph 7.6 mph 89% 0 in 0 W/m2
02:14 66.2 °F 62.6 °F 29.9 in SSW 3.8 mph 7.6 mph 88% 0 in 0 W/m2
02:19 66 °F 63 °F 29.9 in Calm   4.5 mph 90% 0 in 0 W/m2
02:24 66.2 °F 63 °F 29.9 in SSW 1.6 mph 4.5 mph 89% 0 in 0 W/m2
02:29 66 °F 62.8 °F 29.9 in SSW 1.6 mph 3.8 mph 89% 0 in 0 W/m2
02:34 66 °F 62.8 °F 29.9 in Calm   3.8 mph 89% 0 in 0 W/m2
02:39 66 °F 62.8 °F 29.9 in Calm   2.2 mph 89% 0 in 0 W/m2
02:44 65.8 °F 62.8 °F 29.9 in Calm   5.4 mph 90% 0 in 0 W/m2
02:49 65.8 °F 62.4 °F 29.9 in SSW 3.1 mph 6.9 mph 89% 0 in 0 W/m2
02:54 66 °F 62.8 °F 29.9 in Calm   6.9 mph 89% 0 in 0 W/m2
02:59 66 °F 62.4 °F 29.9 in Calm   4.5 mph 88% 0 in 0 W/m2
03:04 66 °F 62.4 °F 29.9 in Calm   2.2 mph 88% 0 in 0 W/m2
03:09 66 °F 62.4 °F 29.9 in SW 2.2 mph 5.4 mph 88% 0 in 0 W/m2
03:14 66 °F 62.4 °F 29.9 in Calm   5.4 mph 88% 0 in 0 W/m2
03:19 66 °F 62.4 °F 29.9 in SSW 3.1 mph 5.4 mph 88% 0 in 0 W/m2
03:24 66 °F 62.4 °F 29.9 in SSW 4.5 mph 7.6 mph 88% 0 in 0 W/m2
03:29 66 °F 62.4 °F 29.9 in SSW 2.2 mph 7.6 mph 88% 0 in 0 W/m2
03:34 66 °F 62.4 °F 29.9 in SSW 3.1 mph 7.6 mph 88% 0 in 0 W/m2
03:39 66 °F 62.4 °F 29.9 in SSW 3.1 mph 6.9 mph 88% 0 in 0 W/m2
03:45 65.8 °F 62.2 °F 29.9 in South 3.1 mph 7.6 mph 88% 0 in 0 W/m2
03:50 65.8 °F 61.9 °F 29.9 in South 3.8 mph 7.6 mph 87% 0 in 0 W/m2
03:55 65.8 °F 61.9 °F 29.9 in South 5.4 mph 6.9 mph 87% 0 in 0 W/m2
04:00 65.7 °F 61.3 °F 29.9 in South 9.2 mph 13 mph 86% 0 in 0 W/m2
04:05 65.5 °F 61.2 °F 29.9 in South 4.5 mph 13 mph 86% 0 in 0 W/m2
04:10 65.3 °F 61.3 °F 29.9 in South 0.7 mph 10.7 mph 87% 0 in 0 W/m2
04:15 65.1 °F 61.2 °F 29.9 in SSW 3.1 mph 6 mph 87% 0 in 0 W/m2
04:20 65.1 °F 61.5 °F 29.9 in SSW 3.8 mph 5.4 mph 88% 0 in 0 W/m2
04:25 65.3 °F 61.7 °F 30 in SSW 5.4 mph 8.3 mph 88% 0 in 0 W/m2
04:30 65.3 °F 61.7 °F 30 in SSW 6.9 mph 9.2 mph 88% 0 in 0 W/m2
04:35 65.3 °F 61.7 °F 29.9 in South 7.6 mph 11.4 mph 88% 0 in 0 W/m2
04:40 65.3 °F 61.7 °F 29.9 in South 5.4 mph 11.4 mph 88% 0 in 0 W/m2
04:45 65.3 °F 61.7 °F 29.9 in SSW 6.9 mph 12.1 mph 88% 0 in 0 W/m2
04:50 65.1 °F 61.9 °F 29.9 in SSW 6.9 mph 12.1 mph 89% 0 in 0 W/m2
04:55 65.1 °F 61.9 °F 30 in SSW 8.3 mph 11.4 mph 89% 0 in 0 W/m2
05:00 65.1 °F 61.9 °F 29.9 in SSW 6 mph 12.1 mph 89% 0 in 0 W/m2
05:05 65.1 °F 61.9 °F 29.9 in SW 4.5 mph 12.1 mph 89% 0 in 0 W/m2
05:10 65.3 °F 62.1 °F 30 in SSW 5.4 mph 9.8 mph 89% 0 in 0 W/m2
05:15 65.3 °F 62.1 °F 30 in SSW 9.8 mph 15.2 mph 89% 0 in 0 W/m2
05:20 65.5 °F 62.2 °F 30 in SSW 9.8 mph 16.8 mph 89% 0 in 0 W/m2
05:25 65.3 °F 61.7 °F 30 in SSW 9.2 mph 16.8 mph 88% 0 in 0 W/m2
05:30 65.3 °F 61.7 °F 30 in SW 6.9 mph 14.5 mph 88% 0 in 0 W/m2
05:35 65.3 °F 61.7 °F 30 in SSW 7.6 mph 15.9 mph 88% 0 in 0 W/m2
05:40 65.1 °F 61.9 °F 30 in SSW 9.2 mph 15.9 mph 89% 0 in 0 W/m2
05:45 64.9 °F 62.1 °F 30 in SSW 11.4 mph 15.2 mph 90% 0 in 0 W/m2
05:50 64.8 °F 62.1 °F 30 in SSW 13 mph 19.7 mph 91% 0 in 0 W/m2
05:55 64.6 °F 61.9 °F 30 in SW 12.1 mph 19.7 mph 91% 0 in 0 W/m2
06:00 64.2 °F 61.9 °F 30 in SW 10.7 mph 19.7 mph 92% 0 in 0 W/m2
06:06 63.9 °F 61.5 °F 30 in SSW 12.1 mph 20.6 mph 92% 0 in 0 W/m2
06:11 63.7 °F 61.5 °F 30 in SW 9.2 mph 22.8 mph 93% 0 in 0 W/m2
06:16 63.5 °F 61.5 °F 30 in SW 9.2 mph 22.8 mph 93% 0 in 0 W/m2
06:21 63.3 °F 61.5 °F 30 in SW 13.6 mph 16.8 mph 94% 0 in 0 W/m2
06:26 63.1 °F 61.3 °F 30 in WSW 7.6 mph 22.1 mph 94% 0 in 0 W/m2
06:31 63.1 °F 61.3 °F 30 in WSW 9.2 mph 22.1 mph 94% 0 in 0 W/m2
06:36 63.1 °F 61.2 °F 30 in SW 11.4 mph 19.7 mph 93% 0 in 0 W/m2
06:41 63.1 °F 61.2 °F 30 in SW 9.2 mph 19.7 mph 93% 0 in 0 W/m2
06:46 63.1 °F 61.3 °F 30 in SW 5.4 mph 18.3 mph 94% 0 in 0 W/m2
06:51 63.1 °F 61.3 °F 30 in SW 6 mph 13.6 mph 94% 0 in 0 W/m2
06:56 63.1 °F 61.3 °F 30 in SW 4.5 mph 11.4 mph 94% 0 in 0 W/m2
07:01 63.3 °F 61.9 °F 30 in SW 4.5 mph 12.1 mph 95% 0 in 0 W/m2
07:06 63.7 °F 62.2 °F 30 in SW 6 mph 12.1 mph 95% 0 in 0 W/m2
07:11 63.9 °F 62.8 °F 30 in SW 6 mph 13 mph 96% 0 in 0 W/m2
07:16 63.7 °F 62.4 °F 30 in SSW 8.3 mph 13 mph 96% 0 in 1 W/m2
07:21 63.7 °F 62.4 °F 30 in SSW 6.9 mph 13.6 mph 96% 0 in 2 W/m2
07:26 63.5 °F 62.4 °F 30 in South 10.7 mph 15.9 mph 96% 0 in 4 W/m2
07:31 63.1 °F 61.7 °F 30 in South 7.6 mph 15.9 mph 95% 0 in 6 W/m2
07:36 63.1 °F 62.1 °F 30 in South 6 mph 15.2 mph 96% 0 in 8 W/m2
07:41 63.1 °F 62.1 °F 30 in SSE 6.9 mph 13 mph 96% 0 in 9 W/m2
07:46 62.8 °F 61.3 °F 30 in SSE 3.8 mph 16.8 mph 95% 0 in 13 W/m2
07:51 62.8 °F 61.3 °F 30 in SSE 8.3 mph 16.8 mph 95% 0 in 12 W/m2
07:56 62.4 °F 61.3 °F 30 in South 9.8 mph 20.6 mph 96% 0 in 9 W/m2
08:01 62.2 °F 61.2 °F 30 in South 5.4 mph 20.6 mph 96% 0 in 13 W/m2
08:06 62.2 °F 60.8 °F 30 in South 5.4 mph 15.9 mph 95% 0 in 16 W/m2
08:11 62.2 °F 60.8 °F 30 in SSE 8.3 mph 13 mph 95% 0 in 14 W/m2
08:16 62.2 °F 60.4 °F 30 in SSE 7.6 mph 15.2 mph 94% 0 in 16 W/m2
08:21 62.2 °F 60.4 °F 30 in SSE 6.9 mph 15.2 mph 94% 0 in 17 W/m2
08:26 62.2 °F 60.3 °F 30 in SSE 7.6 mph 13 mph 93% 0 in 21 W/m2
08:27 62.2 °F 60.3 °F 30 in SSE 3.8 mph 13 mph 93% 0 in 20 W/m2
08:31 62.4 °F 60.4 °F 30 in SSE 6 mph 13 mph 93% 0 in 16 W/m2
08:33 62.4 °F 60.4 °F 30 in SSE 6 mph 13 mph 93% 0 in 16 W/m2
08:36 62.2 °F 60.3 °F 30 in South 8.3 mph 15.2 mph 93% 0 in 25 W/m2
08:38 62.2 °F 60.3 °F 30 in South 9.8 mph 16.8 mph 93% 0 in 25 W/m2
08:40 62.1 °F 60.1 °F 30 in South 6 mph 16.8 mph 93% 0 in 23 W/m2
08:43 62.1 °F 60.3 °F 30 in South 3.8 mph 16.8 mph 94% 0 in 23 W/m2
08:48 62.1 °F 60.1 °F 30 in South 6.9 mph 13 mph 93% 0 in 21 W/m2
08:51 61.9 °F 59.5 °F 30 in South 2.2 mph 10.7 mph 92% 0 in 21 W/m2
08:56 61.9 °F 59.5 °F 30 in SSE 4.5 mph 10.7 mph 92% 0 in 37 W/m2
09:01 61.9 °F 59.2 °F 30 in SE 3.8 mph 9.8 mph 91% 0 in 39 W/m2
09:04 62.1 °F 59.2 °F 30 in SE 4.5 mph 9.8 mph 90% 0 in 44 W/m2
09:09 62.2 °F 59 °F 30 in SSE 3.1 mph 9.8 mph 89% 0 in 56 W/m2
09:12 62.4 °F 59.2 °F 30 in SE 0.7 mph 9.8 mph 89% 0 in 59 W/m2
09:16 62.6 °F 58.6 °F 30 in SSE 6 mph 7.6 mph 87% 0 in 74 W/m2
09:21 63 °F 58.6 °F 30 in Calm   6.9 mph 86% 0 in 81 W/m2
09:26 63.1 °F 58.6 °F 30 in South 3.1 mph 6.9 mph 85% 0 in 67 W/m2
09:31 63.1 °F 58.3 °F 30 in South 3.1 mph 6 mph 84% 0 in 52 W/m2
09:34 63.5 °F 58.6 °F 30 in South 3.8 mph 6 mph 84% 0 in 54 W/m2
09:37 63.5 °F 58.6 °F 30 in SSE 1.6 mph 6 mph 84% 0 in 68 W/m2
09:42 63.5 °F 58.6 °F 30 in Calm   5.4 mph 84% 0 in 64 W/m2
09:57 63.5 °F 59.9 °F 30.1 in Calm     88% 0 in 187 W/m2
10:27 63.3 °F 59.2 °F 30.1 in SW 0.7 mph 3.1 mph 86% 0 in 124 W/m2
10:57 63.3 °F 59.4 °F 30.1 in West 2.2 mph 3.8 mph 87% 0 in 211 W/m2
11:27 62.8 °F 58.8 °F 30.1 in SW 3.8 mph 6 mph 87% 0 in 160 W/m2
11:57 63.9 °F 59.4 °F 30.1 in South 6.9 mph 10.7 mph 85% 0 in 91 W/m2
12:27 63.3 °F 60.1 °F 30.1 in South 8.3 mph 11.4 mph 89% 0 in 332 W/m2
12:57 65.8 °F 59.2 °F 30.1 in South 6.9 mph 9.8 mph 79% 0 in 280 W/m2
13:27 65.5 °F 59.7 °F 30.1 in South 6.9 mph 9.8 mph 82% 0 in 219 W/m2
13:57 64.4 °F 60.1 °F 30.1 in East 6 mph 7.6 mph 86% 0 in 191 W/m2
14:27 62.6 °F 59.5 °F 30.1 in SE 1.6 mph 4.5 mph 90% 0 in 159 W/m2
14:56 62.8 °F 60.4 °F 30.1 in Calm   2.2 mph 92% 0 in 180 W/m2
14:57 62.8 °F 60.4 °F 30.1 in SE 2.2 mph 3.8 mph 92% 0 in 180 W/m2
14:58 62.8 °F 60.4 °F 30.1 in SSE 3.1 mph 4.5 mph 92% 0 in 184 W/m2
14:59 62.8 °F 60.4 °F 30.1 in SSE 1.6 mph 4.5 mph 92% 0 in 182 W/m2
15:00 62.8 °F 60.4 °F 30.1 in SSE 0.7 mph 4.5 mph 92% 0 in 177 W/m2
15:01 62.8 °F 60.4 °F 30.1 in Calm   4.5 mph 92% 0 in 170 W/m2
15:02 62.8 °F 60.4 °F 30.1 in SE 0.7 mph 4.5 mph 92% 0 in 164 W/m2
15:03 62.8 °F 60.4 °F 30.1 in SE 3.8 mph 6.9 mph 92% 0 in 166 W/m2
15:04 62.8 °F 60.4 °F 30.1 in SE 2.2 mph 6.9 mph 92% 0 in 167 W/m2
15:05 62.6 °F 60.3 °F 30.1 in SE 1.6 mph 6.9 mph 92% 0 in 167 W/m2
15:06 62.6 °F 60.1 °F 30.1 in SE 3.1 mph 6.9 mph 91% 0 in 157 W/m2
15:07 62.4 °F 60.1 °F 30.1 in Calm   6.9 mph 92% 0 in 143 W/m2
15:08 62.4 °F 60.1 °F 30.1 in SE 0.7 mph 6.9 mph 92% 0 in 129 W/m2
15:10 62.4 °F 60.1 °F 30.1 in SE 1.6 mph 6.9 mph 92% 0 in 120 W/m2
15:11 62.4 °F 60.1 °F 30.1 in SE 2.2 mph 6.9 mph 92% 0 in 125 W/m2
15:12 62.4 °F 60.1 °F 30.1 in SE 2.2 mph 6.9 mph 92% 0 in 124 W/m2
15:13 62.4 °F 60.1 °F 30.1 in ESE 0.7 mph 6.9 mph 92% 0 in 122 W/m2
15:14 62.4 °F 60.1 °F 30.1 in ESE 1.6 mph 6.9 mph 92% 0 in 116 W/m2
15:15 62.2 °F 59.9 °F 30.1 in ESE 2.2 mph 6.9 mph 92% 0 in 112 W/m2
15:16 62.2 °F 59.9 °F 30.1 in ESE 0.7 mph 6.9 mph 92% 0 in 105 W/m2
15:17 62.2 °F 59.9 °F 30.1 in ESE 0.7 mph 6.9 mph 92% 0 in 101 W/m2
15:18 62.2 °F 59.9 °F 30.1 in Calm   6.9 mph 92% 0 in 98 W/m2
15:19 62.2 °F 59.9 °F 30.1 in ESE 0.7 mph 6.9 mph 92% 0 in 95 W/m2
15:20 62.2 °F 59.9 °F 30.1 in ESE 1.6 mph 6.9 mph 92% 0 in 91 W/m2
15:21 62.1 °F 59.7 °F 30.1 in ESE 2.2 mph 6.9 mph 92% 0 in 89 W/m2
15:22 62.1 °F 59.7 °F 30.1 in SE 2.2 mph 6.9 mph 92% 0 in 93 W/m2
15:23 61.9 °F 59.5 °F 30.1 in SSE 4.5 mph 6 mph 92% 0 in 90 W/m2
15:24 61.9 °F 59.5 °F 30.1 in SSE 2.2 mph 6 mph 92% 0 in 72 W/m2
15:25 61.7 °F 59.4 °F 30.1 in South 3.1 mph 6 mph 92% 0 in 61 W/m2
15:26 61.7 °F 59.4 °F 30.1 in South 1.6 mph 6 mph 92% 0 in 75 W/m2
15:27 61.7 °F 59.4 °F 30.1 in Calm   6 mph 92% 0 in 98 W/m2
15:28 61.7 °F 59.4 °F 30.1 in Calm   6 mph 92% 0 in 106 W/m2
15:29 61.9 °F 59.5 °F 30.1 in Calm   6 mph 92% 0 in 99 W/m2
15:30 61.9 °F 59.5 °F 30.1 in Calm   6 mph 92% 0 in 93 W/m2
15:31 62.1 °F 59.7 °F 30.1 in Calm   6 mph 92% 0 in 91 W/m2
15:32 62.1 °F 59.7 °F 30.1 in Calm   6 mph 92% 0 in 85 W/m2
15:33 62.1 °F 59.7 °F 30.1 in South 0.7 mph 6 mph 92% 0 in 82 W/m2
15:34 62.1 °F 59.7 °F 30.1 in Calm   3.8 mph 92% 0 in 87 W/m2
15:35 62.1 °F 59.7 °F 30.1 in Calm   3.8 mph 92% 0 in 93 W/m2
15:36 62.2 °F 59.9 °F 30.1 in Calm   3.8 mph 92% 0 in 96 W/m2
15:37 62.2 °F 59.9 °F 30.1 in ESE 3.1 mph 5.4 mph 92% 0 in 98 W/m2
15:38 62.2 °F 59.5 °F 30.1 in SE 1.6 mph 5.4 mph 91% 0 in 90 W/m2
15:39 62.2 °F 59.5 °F 30.1 in SE 1.6 mph 5.4 mph 91% 0 in 80 W/m2
15:40 62.2 °F 59.5 °F 30.1 in SE 3.1 mph 5.4 mph 91% 0 in 77 W/m2
15:41 62.1 °F 59.2 °F 30.1 in SE 3.1 mph 5.4 mph 90% 0 in 72 W/m2
15:42 62.1 °F 59.2 °F 30.1 in SE 3.8 mph 5.4 mph 90% 0 in 76 W/m2
15:43 62.1 °F 59.2 °F 30.1 in SSE 6 mph 7.6 mph 90% 0 in 77 W/m2
15:44 62.1 °F 59.2 °F 30.1 in SSE 4.5 mph 7.6 mph 90% 0 in 72 W/m2
15:45 62.1 °F 59.2 °F 30.1 in SSE 5.4 mph 9.2 mph 90% 0 in 69 W/m2
15:46 62.1 °F 59.2 °F 30.1 in SSE 3.8 mph 9.2 mph 90% 0 in 67 W/m2
15:47 61.9 °F 59.2 °F 30.1 in SSE 5.4 mph 9.2 mph 91% 0 in 68 W/m2
15:48 61.9 °F 59.2 °F 30.1 in SSE 5.4 mph 9.2 mph 91% 0 in 73 W/m2
15:49 61.7 °F 59.4 °F 30.1 in SSE 3.1 mph 9.2 mph 92% 0 in 76 W/m2
15:50 61.7 °F 59.4 °F 30.1 in South 3.8 mph 9.2 mph 92% 0 in 71 W/m2
15:51 61.7 °F 59.4 °F 30.1 in South 0.7 mph 9.2 mph 92% 0 in 65 W/m2
15:52 61.7 °F 59.4 °F 30.1 in South 3.1 mph 9.2 mph 92% 0 in 63 W/m2
15:53 61.7 °F 59.4 °F 30.1 in South 5.4 mph 9.2 mph 92% 0 in 69 W/m2
15:54 61.5 °F 59.5 °F 30.1 in South 4.5 mph 9.2 mph 93% 0 in 85 W/m2
15:55 61.5 °F 59.5 °F 30.1 in South 4.5 mph 9.2 mph 93% 0 in 110 W/m2
15:56 61.5 °F 59.5 °F 30.1 in SSW 3.1 mph 8.3 mph 93% 0 in 133 W/m2
15:57 61.5 °F 59.5 °F 30.1 in SSW 2.2 mph 8.3 mph 93% 0 in 128 W/m2
15:58 61.5 °F 59.5 °F 30.1 in SSW 0.7 mph 8.3 mph 93% 0 in 110 W/m2
15:59 61.5 °F 59.5 °F 30.1 in Calm   8.3 mph 93% 0 in 96 W/m2
16:00 61.5 °F 59.5 °F 30.1 in Calm   8.3 mph 93% 0 in 93 W/m2
16:01 61.7 °F 60.1 °F 30.1 in Calm   8.3 mph 94% 0 in 94 W/m2
16:02 61.5 °F 59.7 °F 30.1 in Calm   8.3 mph 94% 0 in 89 W/m2
16:03 61.5 °F 59.7 °F 30.1 in Calm   7.6 mph 94% 0 in 82 W/m2
16:04 61.5 °F 59.7 °F 30.1 in Calm   6.9 mph 94% 0 in 84 W/m2
16:05 61.7 °F 60.1 °F 30.1 in South 3.8 mph 6.9 mph 94% 0 in 86 W/m2
16:06 61.7 °F 60.1 °F 30.1 in South 3.1 mph 6.9 mph 94% 0 in 86 W/m2
16:07 61.7 °F 60.1 °F 30.1 in South 3.8 mph 6.9 mph 94% 0 in 86 W/m2
16:08 61.5 °F 59.7 °F 30.1 in SSE 2.2 mph 6.9 mph 94% 0 in 88 W/m2
16:09 61.5 °F 59.5 °F 30.1 in Calm   6.9 mph 93% 0 in 86 W/m2
16:10 61.5 °F 59.5 °F 30.1 in Calm   6.9 mph 93% 0 in 81 W/m2
16:11 61.7 °F 59.7 °F 30.1 in Calm   6.9 mph 93% 0 in 80 W/m2
16:12 61.7 °F 60.1 °F 30.1 in Calm   6.9 mph 94% 0 in 80 W/m2
16:13 61.9 °F 60.3 °F 30.1 in SSE 0.7 mph 6.9 mph 94% 0 in 80 W/m2
16:14 62.1 °F 60.3 °F 30.1 in Calm   6.9 mph 94% 0 in 86 W/m2
16:15 62.1 °F 60.3 °F 30.1 in Calm   6.9 mph 94% 0 in 91 W/m2
16:16 62.2 °F 60.4 °F 30.1 in Calm   5.4 mph 94% 0 in 89 W/m2
16:17 62.2 °F 60.4 °F 30.1 in SSE 1.6 mph 4.5 mph 94% 0 in 88 W/m2
16:18 62.2 °F 60.4 °F 30.1 in SSW 1.6 mph 5.4 mph 94% 0 in 89 W/m2
16:19 62.2 °F 60.3 °F 30.1 in Calm   5.4 mph 93% 0 in 95 W/m2
16:20 62.2 °F 60.3 °F 30.1 in Calm   5.4 mph 93% 0 in 98 W/m2
16:21 62.4 °F 60.4 °F 30.1 in SSE 2.2 mph 5.4 mph 93% 0 in 98 W/m2
16:22 62.4 °F 60.4 °F 30.1 in SE 2.2 mph 5.4 mph 93% 0 in 95 W/m2
16:23 62.4 °F 60.4 °F 30.1 in SE 3.8 mph 6 mph 93% 0 in 87 W/m2
16:24 62.4 °F 60.4 °F 30.1 in SE 3.1 mph 6 mph 93% 0 in 80 W/m2
16:25 62.4 °F 60.1 °F 30.1 in SE 1.6 mph 6 mph 92% 0 in 78 W/m2
16:26 62.4 °F 60.1 °F 30.1 in SE 2.2 mph 6 mph 92% 0 in 73 W/m2
16:27 62.4 °F 60.1 °F 30.1 in Calm   6 mph 92% 0 in 72 W/m2
16:28 62.4 °F 59.7 °F 30.1 in SE 0.7 mph 6 mph 91% 0 in 74 W/m2
16:29 62.6 °F 59.5 °F 30.1 in SE 3.1 mph 6 mph 90% 0 in 85 W/m2
16:30 62.4 °F 59.7 °F 30.1 in SE 1.6 mph 6 mph 91% 0 in 76 W/m2
16:31 62.6 °F 59.4 °F 30.1 in SE 0.7 mph 6 mph 89% 0 in 71 W/m2
16:32 62.6 °F 59.4 °F 30.1 in SE 0.7 mph 6 mph 89% 0 in 63 W/m2
16:33 62.6 °F 59 °F 30.1 in Calm   6 mph 88% 0 in 62 W/m2
16:34 62.6 °F 59 °F 30.1 in Calm   5.4 mph 88% 0 in 67 W/m2
16:35 62.6 °F 59 °F 30.1 in Calm   5.4 mph 88% 0 in 73 W/m2
16:36 62.8 °F 59.2 °F 30.1 in Calm   5.4 mph 88% 0 in 80 W/m2
16:37 62.8 °F 59.2 °F 30.1 in SSE 3.8 mph 6.9 mph 88% 0 in 81 W/m2
16:38 62.8 °F 59.2 °F 30.1 in SSE 1.6 mph 6.9 mph 88% 0 in 79 W/m2
16:39 62.8 °F 58.8 °F 30.1 in SSE 1.6 mph 6.9 mph 87% 0 in 76 W/m2
16:40 62.8 °F 58.8 °F 30.1 in SSE 1.6 mph 6.9 mph 87% 0 in 73 W/m2
16:41 62.8 °F 58.8 °F 30.1 in SE 3.1 mph 6.9 mph 87% 0 in 70 W/m2
16:42 62.8 °F 58.8 °F 30.1 in SE 3.8 mph 6.9 mph 87% 0 in 67 W/m2
16:43 62.8 °F 58.5 °F 30.1 in SE 5.4 mph 7.6 mph 86% 0 in 68 W/m2
16:44 63 °F 58.6 °F 30.1 in ESE 4.5 mph 7.6 mph 86% 0 in 65 W/m2
16:45 62.8 °F 58.5 °F 30.1 in ESE 5.4 mph 7.6 mph 86% 0 in 57 W/m2
16:46 62.8 °F 58.5 °F 30.1 in ESE 4.5 mph 7.6 mph 86% 0 in 56 W/m2
16:47 62.6 °F 58.5 °F 30.1 in ESE 3.1 mph 7.6 mph 86% 0 in 56 W/m2
16:48 62.6 °F 58.5 °F 30.1 in East 3.1 mph 7.6 mph 86% 0 in 56 W/m2
16:49 62.6 °F 58.5 °F 30.1 in East 1.6 mph 7.6 mph 86% 0 in 58 W/m2
16:50 62.6 °F 58.5 °F 30.1 in East 3.1 mph 7.6 mph 86% 0 in 60 W/m2
16:51 62.6 °F 58.5 °F 30.1 in East 3.1 mph 7.6 mph 86% 0 in 60 W/m2
16:52 62.6 °F 58.5 °F 30.1 in East 3.1 mph 7.6 mph 86% 0 in 56 W/m2
16:53 62.4 °F 58.8 °F 30.1 in East 3.8 mph 7.6 mph 88% 0 in 54 W/m2
16:54 62.4 °F 58.8 °F 30.1 in East 2.2 mph 6 mph 88% 0 in 53 W/m2
16:55 62.4 °F 58.8 °F 30.1 in East 2.2 mph 6 mph 88% 0 in 54 W/m2
16:56 62.4 °F 58.8 °F 30.1 in Calm   6 mph 88% 0 in 58 W/m2
16:57 62.6 °F 58.6 °F 30.1 in East 2.2 mph 6 mph 87% 0 in 60 W/m2
16:58 62.6 °F 58.6 °F 30.1 in East 3.1 mph 6 mph 87% 0 in 64 W/m2
16:59 62.6 °F 58.6 °F 30.1 in East 0.7 mph 6 mph 87% 0 in 75 W/m2
17:00 62.6 °F 58.6 °F 30.1 in East 1.6 mph 6 mph 87% 0 in 85 W/m2
17:01 62.6 °F 58.6 °F 30.1 in ESE 0.7 mph 6 mph 87% 0 in 90 W/m2
17:02 62.8 °F 58.8 °F 30.1 in Calm   6 mph 87% 0 in 100 W/m2
17:03 62.8 °F 58.8 °F 30.1 in East 0.7 mph 6 mph 87% 0 in 110 W/m2
17:04 62.8 °F 58.8 °F 30.1 in Calm   4.5 mph 87% 0 in 113 W/m2
17:05 63 °F 59 °F 30.1 in Calm   4.5 mph 87% 0 in 110 W/m2
17:06 63 °F 59 °F 30.1 in Calm   4.5 mph 87% 0 in 114 W/m2
17:07 63.1 °F 59.2 °F 30.1 in Calm   4.5 mph 87% 0 in 115 W/m2
17:08 63.1 °F 59.2 °F 30.1 in Calm   4.5 mph 87% 0 in 114 W/m2
17:09 63.3 °F 59.4 °F 30.1 in Calm   3.8 mph 87% 0 in 112 W/m2
17:10 63.3 °F 59.4 °F 30.1 in ESE 2.2 mph 3.8 mph 87% 0 in 106 W/m2
17:11 63.3 °F 59.4 °F 30.1 in East 3.1 mph 3.8 mph 87% 0 in 102 W/m2
17:12 63.3 °F 59.2 °F 30.1 in East 2.2 mph 3.8 mph 86% 0 in 99 W/m2
17:13 63.3 °F 59.2 °F 30.1 in Calm   3.8 mph 86% 0 in 97 W/m2
17:14 63.3 °F 59.2 °F 30.1 in Calm   3.8 mph 86% 0 in 96 W/m2
17:15 63.3 °F 59.2 °F 30.1 in ESE 1.6 mph 3.8 mph 86% 0 in 94 W/m2
17:16 63.3 °F 59.2 °F 30.1 in ESE 0.7 mph 3.8 mph 86% 0 in 92 W/m2
17:17 63.3 °F 59.2 °F 30.1 in ESE 0.7 mph 3.8 mph 86% 0 in 92 W/m2
17:18 63.3 °F 59.2 °F 30.1 in Calm   3.8 mph 86% 0 in 90 W/m2
17:19 63.3 °F 59.2 °F 30.1 in Calm   3.8 mph 86% 0 in 86 W/m2
17:20 63.3 °F 59.2 °F 30.1 in ESE 2.2 mph 3.8 mph 86% 0 in 78 W/m2
17:21 63.3 °F 59.2 °F 30.1 in ESE 2.2 mph 3.8 mph 86% 0 in 68 W/m2
17:22 63.3 °F 58.8 °F 30.1 in ESE 2.2 mph 6 mph 85% 0 in 59 W/m2
17:23 63.3 °F 58.8 °F 30.1 in ESE 2.2 mph 6 mph 85% 0 in 52 W/m2
17:24 63.3 °F 58.8 °F 30.1 in Calm   6 mph 85% 0 in 49 W/m2
17:25 63.3 °F 58.8 °F 30.1 in ESE 1.6 mph 6 mph 85% 0 in 45 W/m2
17:26 63.3 °F 59.2 °F 30.1 in ESE 4.5 mph 8.3 mph 86% 0 in 41 W/m2
17:27 63.3 °F 59.2 °F 30.1 in ESE 2.2 mph 8.3 mph 86% 0 in 39 W/m2
17:28 63.3 °F 59.2 °F 30.1 in ESE 2.2 mph 8.3 mph 86% 0 in 39 W/m2
17:29 63.1 °F 58.8 °F 30.1 in ESE 6 mph 8.3 mph 86% 0 in 39 W/m2
17:30 63.1 °F 58.8 °F 30.1 in ESE 3.1 mph 8.3 mph 86% 0 in 40 W/m2
17:31 63 °F 58.6 °F 30.1 in ESE 4.5 mph 8.3 mph 86% 0 in 42 W/m2
17:32 63 °F 58.6 °F 30.1 in ESE 4.5 mph 8.3 mph 86% 0 in 43 W/m2
17:33 62.6 °F 58.5 °F 30.1 in ESE 3.8 mph 8.3 mph 86% 0 in 41 W/m2
17:34 62.6 °F 58.5 °F 30.1 in ESE 5.4 mph 8.3 mph 86% 0 in 36 W/m2
17:35 62.4 °F 58.5 °F 30.1 in ESE 6 mph 9.2 mph 87% 0 in 32 W/m2
17:36 62.4 °F 58.5 °F 30.1 in ESE 5.4 mph 9.2 mph 87% 0 in 29 W/m2
17:37 62.2 °F 58.3 °F 30.1 in ESE 6 mph 9.8 mph 87% 0 in 26 W/m2
17:38 62.1 °F 58.5 °F 30.1 in East 4.5 mph 9.8 mph 88% 0 in 24 W/m2
17:39 62.1 °F 58.5 °F 30.1 in ESE 3.1 mph 9.8 mph 88% 0 in 22 W/m2
17:40 61.9 °F 58.3 °F 30.1 in ESE 4.5 mph 9.8 mph 88% 0 in 20 W/m2
17:41 61.9 °F 58.3 °F 30.1 in ESE 6 mph 9.8 mph 88% 0 in 19 W/m2
17:42 61.7 °F 58.1 °F 30.1 in East 4.5 mph 9.8 mph 88% 0 in 18 W/m2
17:43 61.7 °F 58.1 °F 30.1 in East 3.8 mph 9.8 mph 88% 0 in 18 W/m2
17:44 61.7 °F 58.1 °F 30.1 in East 4.5 mph 9.8 mph 88% 0 in 16 W/m2
17:45 61.5 °F 58.3 °F 30.1 in East 4.5 mph 9.8 mph 89% 0 in 14 W/m2
17:46 61.5 °F 58.3 °F 30.1 in East 5.4 mph 9.8 mph 89% 0 in 13 W/m2
17:47 61.5 °F 58.3 °F 30.1 in East 5.4 mph 9.8 mph 89% 0 in 13 W/m2
17:48 61.5 °F 58.3 °F 30.1 in East 2.2 mph 7.6 mph 89% 0 in 14 W/m2
17:49 61.3 °F 58.1 °F 30.1 in East 5.4 mph 7.6 mph 89% 0 in 13 W/m2
17:50 61.3 °F 58.1 °F 30.1 in East 3.8 mph 7.6 mph 89% 0 in 12 W/m2
17:51 61.3 °F 58.1 °F 30.1 in East 4.5 mph 7.6 mph 89% 0 in 11 W/m2
17:52 61.3 °F 58.1 °F 30.1 in East 5.4 mph 7.6 mph 89% 0 in 10 W/m2
17:53 61.3 °F 58.1 °F 30.1 in East 3.8 mph 7.6 mph 89% 0 in 9 W/m2
17:54 61.3 °F 58.1 °F 30.1 in East 3.1 mph 7.6 mph 89% 0 in 8 W/m2
17:55 61.3 °F 58.1 °F 30.1 in East 2.2 mph 7.6 mph 89% 0 in 8 W/m2
17:56 61.3 °F 58.1 °F 30.1 in ESE 4.5 mph 7.6 mph 89% 0 in 7 W/m2
17:57 61.3 °F 58.1 °F 30.1 in East 3.1 mph 7.6 mph 89% 0 in 7 W/m2
17:58 61.2 °F 57.9 °F 30.1 in East 4.5 mph 6.9 mph 89% 0 in 7 W/m2
17:59 61.2 °F 57.6 °F 30.1 in East 2.2 mph 6.9 mph 88% 0 in 7 W/m2
18:00 61.2 °F 57.6 °F 30.1 in East 3.1 mph 6.9 mph 88% 0 in 6 W/m2
18:01 61.2 °F 57.6 °F 30.1 in East 2.2 mph 6.9 mph 88% 0 in 6 W/m2
18:02 61.2 °F 57.6 °F 30.1 in East 3.8 mph 6.9 mph 88% 0 in 6 W/m2
18:03 61.2 °F 57.6 °F 30.1 in East 3.1 mph 6.9 mph 88% 0 in 5 W/m2
18:04 61.2 °F 57.6 °F 30.1 in East 5.4 mph 6.9 mph 88% 0 in 5 W/m2
18:05 61.2 °F 57.6 °F 30.1 in East 3.1 mph 6.9 mph 88% 0 in 4 W/m2
18:06 61.2 °F 57.6 °F 30.1 in East 2.2 mph 6.9 mph 88% 0 in 4 W/m2
18:07 61.2 °F 57.6 °F 30.1 in East 2.2 mph 6.9 mph 88% 0 in 4 W/m2
18:09 61.2 °F 57.6 °F 30.1 in East 0.7 mph 6.9 mph 88% 0 in 3 W/m2
18:10 61.2 °F 57.6 °F 30.1 in East 2.2 mph 6.9 mph 88% 0 in 3 W/m2
18:11 61.2 °F 57.6 °F 30.1 in East 2.2 mph 6.9 mph 88% 0 in 2 W/m2
18:12 61.2 °F 57.6 °F 30.1 in East 2.2 mph 6.9 mph 88% 0 in 2 W/m2
18:13 61.3 °F 57.7 °F 30.1 in East 2.2 mph 6.9 mph 88% 0 in 2 W/m2
18:14 61.3 °F 57.7 °F 30.1 in East 3.1 mph 6.9 mph 88% 0 in 2 W/m2
18:15 61.3 °F 57.7 °F 30.1 in East 3.1 mph 6.9 mph 88% 0 in 2 W/m2
18:16 61.3 °F 57.7 °F 30.1 in East 1.6 mph 4.5 mph 88% 0 in 2 W/m2
18:17 61.3 °F 57.7 °F 30.1 in Calm   4.5 mph 88% 0 in 2 W/m2
18:18 61.3 °F 57.7 °F 30.1 in East 1.6 mph 5.4 mph 88% 0 in 2 W/m2
18:19 61.3 °F 57.7 °F 30.1 in East 3.8 mph 5.4 mph 88% 0 in 1 W/m2
18:20 61.3 °F 57.7 °F 30.1 in East 3.1 mph 5.4 mph 88% 0 in 1 W/m2
18:21 61.3 °F 57.7 °F 30.1 in East 4.5 mph 7.6 mph 88% 0 in 1 W/m2
18:22 61.3 °F 57.7 °F 30.1 in East 4.5 mph 7.6 mph 88% 0 in 1 W/m2
18:23 61.3 °F 57.7 °F 30.1 in East 3.1 mph 7.6 mph 88% 0 in 0 W/m2
18:24 61.3 °F 57.7 °F 30.1 in East 3.1 mph 7.6 mph 88% 0 in 0 W/m2
18:25 61.3 °F 57.7 °F 30.1 in East 3.1 mph 7.6 mph 88% 0 in 0 W/m2
18:26 61.3 °F 57.7 °F 30.1 in Calm   7.6 mph 88% 0 in 0 W/m2
18:27 61.3 °F 57.7 °F 30.1 in East 0.7 mph 7.6 mph 88% 0 in 0 W/m2
18:28 61.3 °F 57.7 °F 30.1 in East 2.2 mph 7.6 mph 88% 0 in 0 W/m2
18:29 61.3 °F 57.7 °F 30.1 in ESE 1.6 mph 7.6 mph 88% 0 in 0 W/m2
18:30 61.3 °F 57.7 °F 30.1 in ESE 3.1 mph 7.6 mph 88% 0 in 0 W/m2
18:31 61.3 °F 57.7 °F 30.1 in ESE 1.6 mph 7.6 mph 88% 0 in 0 W/m2
18:32 61.3 °F 57.7 °F 30.1 in Calm   7.6 mph 88% 0 in 0 W/m2
18:34 61.5 °F 57.9 °F 30.1 in Calm   6 mph 88% 0 in 0 W/m2
18:35 61.5 °F 57.9 °F 30.1 in Calm   6 mph 88% 0 in 0 W/m2
18:36 61.5 °F 57.9 °F 30.1 in Calm   6 mph 88% 0 in 0 W/m2
18:37 61.5 °F 57.9 °F 30.1 in ESE 0.7 mph 6.9 mph 88% 0 in 0 W/m2
18:38 61.5 °F 57.9 °F 30.1 in Calm   6.9 mph 88% 0 in 0 W/m2
18:42 61.3 °F 57.7 °F 30.1 in Calm   6.9 mph 88% 0 in 0 W/m2
18:43 61.5 °F 57.9 °F 30.1 in ESE 0.7 mph 6.9 mph 88% 0 in 0 W/m2
18:44 61.5 °F 57.9 °F 30.1 in ESE 0.7 mph 6.9 mph 88% 0 in 0 W/m2
18:45 61.5 °F 57.9 °F 30.1 in Calm   6.9 mph 88% 0 in 0 W/m2
18:46 61.3 °F 57.7 °F 30.1 in Calm   6.9 mph 88% 0 in 0 W/m2
18:48 61.3 °F 57.7 °F 30.1 in Calm   3.8 mph 88% 0 in 0 W/m2
18:49 61.3 °F 57.7 °F 30.1 in Calm   3.8 mph 88% 0 in 0 W/m2
18:50 61.3 °F 57.7 °F 30.1 in Calm   3.8 mph 88% 0 in 0 W/m2
18:51 61.3 °F 57.7 °F 30.1 in Calm   3.8 mph 88% 0 in 0 W/m2
18:52 61.3 °F 57.7 °F 30.1 in Calm   3.8 mph 88% 0 in 0 W/m2
18:53 61.3 °F 57.7 °F 30.1 in Calm   3.8 mph 88% 0 in 0 W/m2
18:54 61.2 °F 57.6 °F 30.1 in East 3.8 mph 6.9 mph 88% 0 in 4 W/m2
18:55 61.3 °F 57.7 °F 30.1 in Calm   3.8 mph 88% 0 in 0 W/m2
18:56 61.3 °F 57.7 °F 30.1 in Calm   0.7 mph 88% 0 in 0 W/m2
18:57 61.3 °F 57.7 °F 30.1 in Calm   0.7 mph 88% 0 in 0 W/m2
18:58 61.3 °F 57.7 °F 30.1 in Calm   0.7 mph 88% 0 in 0 W/m2
18:59 61.3 °F 57.7 °F 30.1 in Calm   0.7 mph 88% 0 in 0 W/m2
19:00 61.3 °F 57.7 °F 30.1 in Calm   0.7 mph 88% 0 in 0 W/m2
19:01 61.3 °F 57.7 °F 30.1 in Calm   0.7 mph 88% 0 in 0 W/m2
19:03 61.3 °F 57.7 °F 30.1 in Calm   0.7 mph 88% 0 in 0 W/m2
19:04 61.3 °F 57.7 °F 30.1 in Calm   1.6 mph 88% 0 in 0 W/m2
19:05 61.3 °F 57.7 °F 30.1 in Calm   1.6 mph 88% 0 in 0 W/m2
19:06 61.3 °F 57.7 °F 30.1 in Calm   1.6 mph 88% 0 in 0 W/m2
19:07 61.3 °F 57.7 °F 30.1 in Calm   1.6 mph 88% 0 in 0 W/m2
19:08 61.3 °F 57.7 °F 30.1 in Calm   1.6 mph 88% 0 in 0 W/m2
19:09 61.3 °F 57.7 °F 30.1 in Calm   1.6 mph 88% 0 in 0 W/m2
19:10 61.3 °F 57.7 °F 30.1 in Calm   1.6 mph 88% 0 in 0 W/m2
19:11 61.3 °F 57.7 °F 30.1 in Calm   1.6 mph 88% 0 in 0 W/m2
19:12 61.3 °F 57.7 °F 30.1 in Calm   1.6 mph 88% 0 in 0 W/m2
19:13 61.3 °F 57.7 °F 30.1 in Calm   1.6 mph 88% 0 in 0 W/m2
19:15 61.3 °F 57.7 °F 30.1 in Calm     88% 0 in 0 W/m2
19:16 61.3 °F 58.1 °F 30.1 in Calm     89% 0 in 0 W/m2
19:18 61.3 °F 58.1 °F 30.1 in Calm     89% 0 in 0 W/m2
19:19 61.3 °F 57.7 °F 30.1 in ESE 0.7 mph 6 mph 88% 0 in 0 W/m2
19:21 61.3 °F 58.1 °F 30.1 in Calm   0.7 mph 89% 0 in 0 W/m2
19:22 61.3 °F 58.1 °F 30.1 in Calm   0.7 mph 89% 0 in 0 W/m2
19:23 61.3 °F 58.1 °F 30.1 in Calm   0.7 mph 89% 0 in 0 W/m2
19:24 61.3 °F 58.1 °F 30.1 in Calm   0.7 mph 89% 0 in 0 W/m2
19:25 61.3 °F 57.7 °F 30.1 in Calm   6.9 mph 88% 0 in 0 W/m2
19:26 61.3 °F 58.1 °F 30.1 in Calm   0.7 mph 89% 0 in 0 W/m2
19:28 61.3 °F 58.1 °F 30.1 in Calm   0.7 mph 89% 0 in 0 W/m2
19:29 61.5 °F 58.3 °F 30.1 in Calm   0.7 mph 89% 0 in 0 W/m2
19:33 61.3 °F 57.7 °F 30.1 in Calm   3.8 mph 88% 0 in 0 W/m2
19:34 61.5 °F 58.3 °F 30.1 in Calm     89% 0 in 0 W/m2
19:37 61.5 °F 58.3 °F 30.1 in Calm     89% 0 in 0 W/m2
19:38 61.5 °F 58.3 °F 30.1 in NE 0.7 mph 3.1 mph 89% 0 in 0 W/m2
19:40 61.5 °F 58.3 °F 30.1 in NE 0.7 mph 3.1 mph 89% 0 in 0 W/m2
19:41 61.5 °F 58.3 °F 30.1 in Calm   3.1 mph 89% 0 in 0 W/m2
19:42 61.5 °F 58.3 °F 30.1 in Calm   3.1 mph 89% 0 in 0 W/m2
19:43 61.5 °F 58.3 °F 30.1 in Calm   3.1 mph 89% 0 in 0 W/m2
19:44 61.5 °F 58.3 °F 30.1 in Calm   3.1 mph 89% 0 in 0 W/m2
19:46 61.5 °F 58.3 °F 30.1 in Calm   3.1 mph 89% 0 in 0 W/m2
19:47 61.5 °F 58.3 °F 30.1 in Calm   3.1 mph 89% 0 in 0 W/m2
19:48 61.3 °F 57.7 °F 30.1 in Calm   0.7 mph 88% 0 in 0 W/m2
19:50 61.3 °F 58.5 °F 30.1 in NE 3.8 mph 6.9 mph 90% 0 in 0 W/m2
19:53 61.2 °F 58.3 °F 30.1 in NE 1.6 mph 6.9 mph 90% 0 in 0 W/m2
19:55 61.2 °F 58.3 °F 30.1 in NE 1.6 mph 6.9 mph 90% 0 in 0 W/m2
19:58 61 °F 58.3 °F 30.1 in ENE 3.8 mph 6.9 mph 91% 0 in 0 W/m2
19:59 61 °F 58.3 °F 30.1 in ENE 3.8 mph 6.9 mph 91% 0 in 0 W/m2
20:00 61.3 °F 57.7 °F 30.1 in Calm     88% 0 in 0 W/m2
20:02 60.8 °F 58.3 °F 30.1 in Calm   6.9 mph 91% 0 in 0 W/m2
20:06 61.3 °F 58.1 °F 30.1 in Calm     89% 0 in 0 W/m2
20:07 60.6 °F 58.3 °F 30.1 in Calm   6.9 mph 92% 0 in 0 W/m2
20:08 60.6 °F 58.3 °F 30.1 in East 0.7 mph 6.9 mph 92% 0 in 0 W/m2
20:09 60.6 °F 58.3 °F 30.1 in East 0.7 mph 6 mph 92% 0 in 0 W/m2
20:10 60.6 °F 58.3 °F 30.1 in East 0.7 mph 6 mph 92% 0 in 0 W/m2
20:11 60.6 °F 58.3 °F 30.1 in East 1.6 mph 6 mph 92% 0 in 0 W/m2
20:13 61.3 °F 58.1 °F 30.1 in Calm   0.7 mph 89% 0 in 0 W/m2
20:14 60.6 °F 58.3 °F 30.1 in Calm   4.5 mph 92% 0 in 0 W/m2
20:18 61.5 °F 58.3 °F 30.1 in Calm     89% 0 in 0 W/m2
20:21 60.6 °F 58.3 °F 30.1 in Calm   3.1 mph 92% 0 in 0 W/m2
20:23 60.6 °F 58.3 °F 30.1 in Calm   1.6 mph 92% 0 in 0 W/m2
20:25 61.5 °F 58.3 °F 30.1 in NE 2.2 mph 3.1 mph 89% 0 in 0 W/m2
20:31 61.5 °F 58.3 °F 30.1 in Calm   3.1 mph 89% 0 in 0 W/m2
20:33 60.6 °F 58.3 °F 30.1 in Calm     92% 0 in 0 W/m2
20:37 61.3 °F 58.5 °F 30.1 in NE 3.8 mph 6.9 mph 90% 0 in 0 W/m2
20:42 61 °F 57.9 °F 30.1 in ENE 4.5 mph 6.9 mph 90% 0 in 0 W/m2
20:47 60.8 °F 58.3 °F 30.1 in ENE 2.2 mph 6.9 mph 91% 0 in 0 W/m2
20:52 60.6 °F 58.3 °F 30.1 in East 2.2 mph 6.9 mph 92% 0 in 0 W/m2
20:57 60.8 °F 58.3 °F 30.1 in Calm     91% 0 in 0 W/m2
20:58 60.6 °F 58.6 °F 30.1 in Calm   6 mph 93% 0 in 0 W/m2
21:03 60.6 °F 58.3 °F 30.1 in Calm   4.5 mph 92% 0 in 0 W/m2
21:08 60.6 °F 58.3 °F 30.1 in Calm   1.6 mph 92% 0 in 0 W/m2
21:13 60.6 °F 58.3 °F 30.1 in Calm     92% 0 in 0 W/m2
21:18 60.6 °F 58.6 °F 30.1 in Calm     93% 0 in 0 W/m2
21:23 60.6 °F 58.3 °F 30.1 in Calm     92% 0 in 0 W/m2
21:28 60.6 °F 58.3 °F 30.1 in Calm     92% 0 in 0 W/m2
21:33 60.8 °F 58.3 °F 30.1 in Calm     91% 0 in 0 W/m2
21:38 60.8 °F 58.5 °F 30.1 in Calm     92% 0 in 0 W/m2
21:44 60.8 °F 58.3 °F 30.1 in Calm     91% 0 in 0 W/m2
21:49 60.8 °F 58.5 °F 30.1 in Calm     92% 0 in 0 W/m2
21:54 60.8 °F 58.5 °F 30.1 in Calm     92% 0 in 0 W/m2
22:00 60.8 °F 58.5 °F 30.1 in Calm     92% 0 in 0 W/m2
22:06 61.2 °F 58.8 °F 30.1 in Calm     92% 0 in 0 W/m2
22:12 60.8 °F 58.5 °F 30.1 in Calm     92% 0 in 0 W/m2
22:18 61 °F 58.6 °F 30.1 in Calm     92% 0 in 0 W/m2
22:24 60.4 °F 58.5 °F 30.1 in Calm     93% 0 in 0 W/m2
22:30 60.6 °F 58.6 °F 30.1 in Calm     93% 0 in 0 W/m2
22:36 60.4 °F 58.6 °F 30.1 in Calm     94% 0 in 0 W/m2
22:42 61.2 °F 59.2 °F 30.1 in Calm     93% 0 in 0 W/m2
22:48 60.4 °F 58.6 °F 30.1 in Calm     94% 0 in 0 W/m2
22:54 61 °F 59 °F 30.1 in Calm     93% 0 in 0 W/m2
23:00 60.4 °F 59 °F 30.1 in Calm     95% 0 in 0 W/m2
23:06 61.2 °F 59.4 °F 30.1 in Calm     94% 0 in 0 W/m2
23:12 60.3 °F 58.8 °F 30.1 in Calm     95% 0 in 0 W/m2
23:18 59.5 °F 58.5 °F 30.1 in Calm     96% 0 in 0 W/m2
23:24 60.1 °F 59 °F 30.1 in Calm     96% 0 in 0 W/m2
23:30 60.6 °F 59.5 °F 30.1 in Calm     96% 0 in 0 W/m2
23:36 60.1 °F 59 °F 30.1 in Calm     96% 0 in 0 W/m2
23:42 60.6 °F 59.5 °F 30.1 in Calm     96% 0 in 0 W/m2
23:48 59.9 °F 58.8 °F 30.1 in Calm     96% 0 in 0 W/m2
23:54 60.3 °F 59.4 °F 30.1 in Calm     97% 0 in 0 W/m2
Northern Hawkes Bay. New Zealand Historic Data
Compliments of Weather Underground - 2 mb